This is the latest recevied weather packets stored in our database for station/object KB3FKJ. If no packets are shown the sender has not sent any weather packets the latest 10 day(s).
| Time | Temp. | Humidity | Pressure | Rain* | Wind** | Luminosity | Snow |
|---|---|---|---|---|---|---|---|
| 1777153110 | 8.89° C | 94% | 1010.2 hPa | 0 mm | - | 15 W/m² | - |
| 1777152806 | 8.89° C | 93% | 1010.1 hPa | 0 mm | - | 13 W/m² | - |
| 1777152503 | 8.89° C | 93% | 1009.8 hPa | 0 mm | - | 18 W/m² | - |
| 1777152195 | 8.89° C | 94% | 1009.9 hPa | 0 mm | - | 18 W/m² | - |
| 1777151890 | 8.89° C | 93% | 1009.7 hPa | 0 mm | - | 22 W/m² | - |
| 1777151586 | 8.89° C | 93% | 1009.9 hPa | 0 mm | - | 24 W/m² | - |
| 1777151283 | 8.89° C | 93% | 1010 hPa | 0 mm | - | 20 W/m² | - |
| 1777150978 | 8.89° C | 93% | 1010 hPa | 0 mm | - | 15 W/m² | - |
| 1777150677 | 8.89° C | 93% | 1009.9 hPa | 0 mm | - | 20 W/m² | - |
| 1777150374 | 8.89° C | 93% | 1009.8 hPa | 0 mm | - | 24 W/m² | - |
| 1777150070 | 8.89° C | 93% | 1010 hPa | 0 mm | - | 33 W/m² | - |
| 1777149766 | 9.44° C | 94% | 1010 hPa | 0 mm | - | 39 W/m² | - |
| 1777149463 | 9.44° C | 93% | 1010 hPa | 0 mm | - | 41 W/m² | - |
| 1777149159 | 8.89° C | 93% | 1010.1 hPa | 0 mm | - | 48 W/m² | - |
| 1777148858 | 8.89° C | 93% | 1009.9 hPa | 0 mm | - | 53 W/m² | - |
| 1777148557 | 8.89° C | 93% | 1010.1 hPa | 0 mm | - | 47 W/m² | - |
| 1777148252 | 9.44° C | 93% | 1010 hPa | 0 mm | - | 44 W/m² | - |
| 1777147949 | 9.44° C | 94% | 1010 hPa | 0 mm | - | 57 W/m² | - |
| 1777147645 | 9.44° C | 94% | 1010.2 hPa | 0 mm | - | 73 W/m² | - |
| 1777147340 | 9.44° C | 93% | 1010.2 hPa | 0 mm | - | 44 W/m² | - |
| 1777147036 | 8.89° C | 93% | 1010.2 hPa | 0 mm | - | 58 W/m² | - |
| 1777146733 | 9.44° C | 94% | 1010.3 hPa | 0 mm | - | 55 W/m² | - |
| 1777146427 | 9.44° C | 95% | 1010.1 hPa | 0 mm | - | 63 W/m² | - |
| 1777146125 | 9.44° C | 95% | 1010.2 hPa | 0 mm | - | 85 W/m² | - |
| 1777145819 | 8.89° C | 95% | 1010.1 hPa | 0 mm | - | 79 W/m² | - |
* Rain latest hour (hover to see other rain measurements)
** Current wind speed in m/s (hover to see current wind gust speed)